Location: Unspecified
(0.0000°N, 0.0000°E)
Time: 10:53:45
(UTC+00:00)

Hubble Space Telescope - Visible Passes

Search period start: 23 September 2017 00:00
Search period end: 03 October 2017 00:00
Orbit: 538 x 541 km, 28.5° (Epoch: 23 September)

Date Brightness Start Highest point End Pass type
(mag) Time Alt. Az. Time Alt. Az. Time Alt. Az.
23 Sep 3.1 03:49:54 19° SE 03:49:54 19° SE 03:52:07 10° ESE visible
23 Sep 0.9 05:26:04 10° WSW 05:30:10 61° NNW 05:34:15 10° NE visible
24 Sep 3.3 03:40:53 19° ESE 03:40:53 19° ESE 03:42:28 10° E visible
24 Sep 1.4 05:16:17 11° W 05:20:01 41° NNW 05:23:57 10° NE visible
25 Sep 3.7 03:31:53 15° E 03:31:53 15° E 03:32:38 10° E visible
25 Sep 1.9 05:07:16 16° W 05:09:54 29° NNW 05:13:32 10° NNE visible
26 Sep 2.3 04:58:13 17° WNW 04:59:47 21° NNW 05:02:59 10° NNE visible
27 Sep 2.6 04:49:08 15° NW 04:49:41 16° NNW 04:52:14 10° N visible
28 Sep 3.1 04:39:59 11° NNW 04:39:59 11° NNW 04:41:01 10° N visible
